Alphonse Airport


Codes: FSAL/
Name: Alphonse Airport
City: Alphonse Island
Country: Seychelles
Elevation: 10 ft.
Wikipedia:

Photos at Alphonse Airport


   Photos courtesy of SpottingLog. You can add your own sightings and photos by signing up for a free trial today.



No photos found.

Weather at Alphonse Airport


Time (UTC)DescriptionTempratureWindCloud coverageVisibilityPressureHumidity
16-Jun-2024 00:00Light Rain27°C13 mph, SE26%10000m1010hPa81%
16-Jun-2024 03:00Light Rain27°C16 mph, SE29%10000m1010hPa80%
16-Jun-2024 06:00Light Rain27°C18 mph, SE49%10000m1011hPa83%
16-Jun-2024 09:00Moderate Rain27°C16 mph, SE100%5450m1010hPa83%
16-Jun-2024 12:00Moderate Rain27°C16 mph, SE100%8421m1010hPa81%
16-Jun-2024 15:00Moderate Rain28°C18 mph, SE98%10000m1011hPa80%
16-Jun-2024 18:00Light Rain28°C16 mph, SE99%10000m1012hPa80%
16-Jun-2024 21:00Overcast Clouds27°C16 mph, SE99%10000m1011hPa80%
17-Jun-2024 00:00Light Rain27°C16 mph, SE100%10000m1010hPa80%
17-Jun-2024 03:00Light Rain27°C18 mph, SE100%10000m1012hPa82%
17-Jun-2024 06:00Moderate Rain27°C18 mph, SE100%5914m1014hPa82%
17-Jun-2024 09:00Moderate Rain27°C20 mph, SE100%6765m1013hPa81%
17-Jun-2024 12:00Light Rain27°C18 mph, SE100%10000m1011hPa77%
17-Jun-2024 15:00Overcast Clouds27°C18 mph, SE100%10000m1012hPa77%
17-Jun-2024 18:00Overcast Clouds27°C16 mph, SE100%10000m1014hPa76%
17-Jun-2024 21:00Overcast Clouds27°C13 mph, SE100%10000m1012hPa76%
18-Jun-2024 00:00Overcast Clouds27°C13 mph, SE97%10000m1011hPa79%
18-Jun-2024 03:00Light Rain27°C18 mph, SE92%10000m1012hPa81%
18-Jun-2024 06:00Light Rain28°C20 mph, SE96%10000m1013hPa80%
18-Jun-2024 09:00Light Rain28°C20 mph, SE94%10000m1012hPa81%
18-Jun-2024 12:00Overcast Clouds28°C20 mph, SE94%10000m1011hPa81%
18-Jun-2024 15:00Overcast Clouds28°C18 mph, SE99%10000m1012hPa79%
18-Jun-2024 18:00Overcast Clouds28°C20 mph, SE90%10000m1014hPa78%
18-Jun-2024 21:00Scattered Clouds27°C22 mph, SE29%10000m1013hPa76%
19-Jun-2024 00:00Few Clouds27°C22 mph, SE21%10000m1011hPa78%
19-Jun-2024 03:00Few Clouds27°C22 mph, SE17%10000m1012hPa79%
19-Jun-2024 06:00Light Rain27°C20 mph, SE41%10000m1014hPa78%
19-Jun-2024 09:00Light Rain27°C20 mph, SE99%10000m1012hPa78%
19-Jun-2024 12:00Light Rain27°C20 mph, SE96%10000m1011hPa79%
19-Jun-2024 15:00Light Rain27°C18 mph, SE98%10000m1012hPa78%
19-Jun-2024 18:00Light Rain27°C20 mph, SE84%10000m1014hPa79%
19-Jun-2024 21:00Light Rain27°C18 mph, SE100%10000m1013hPa80%
20-Jun-2024 00:00Light Rain27°C20 mph, SE100%10000m1012hPa81%
20-Jun-2024 03:00Light Rain27°C20 mph, SE60%10000m1013hPa80%
20-Jun-2024 06:00Broken Clouds27°C25 mph, SE68%10000m1014hPa81%
20-Jun-2024 09:00Light Rain27°C22 mph, SE96%10000m1012hPa83%
20-Jun-2024 12:00Light Rain27°C25 mph, SE78%10000m1011hPa80%
20-Jun-2024 15:00Light Rain27°C22 mph, SE38%10000m1013hPa80%
20-Jun-2024 18:00Light Rain27°C25 mph, SE29%10000m1014hPa80%
20-Jun-2024 21:00Light Rain27°C27 mph, SE69%10000m1013hPa79%